SCP
0 0 0 0 0 0 0 0 0 0 0 0 0 0 0 0 0 0 0 0 0 0 0 0 0 0 0 0 1 1 1 1 1 1 1 1 1 1 1 0 0 0 0
0 0 0 0 0 0 0 0 0 0 0 0 0 0 0 0 0 0 0 0 0 0 0 0 0 0 0 0 0 1 1 1 1 1 1 0 1 1 1 0 0 0 0
0 0 0 0 0 0 0 0 0 0 0 -0 -0 -0 -0 0 0 0 0 0 0 0 0 0 0 0 0 0 0 0 1 1 1 1 1 0 0 1 1 1 0 0 0
0 0 0 0 0 0 0 0 0 0 -0 -0 -0 -0 -0 0 0 0 0 0 0 0 0 0 0 0 0 0 0 0 0 1 1 1 1 1 0 1 1 1 1 0 0
0 0 0 0 0 0 0 0 0 0 0 0 0 0 0 0 0 0 0 0 0 0 0 0 0 0 0 0 0 0 0 0 0 1 1 1 1 0 1 1 1 0 0
0 0 0 0 0 0 0 0 0 0 0 0 0 0 0 0 0 0 0 0 0 0 0 0 0 0 0 0 0 0 0 0 0 0 1 1 1 1 0 1 1 1 0
0 0 0 0 0 0 0 0 0 0 0 0 0 0 0 0 -0 0 0 0 0 0 0 0 0 0 0 0 0 0 0 0 0 0 0 1 1 1 1 1 1 0 0
0 0 0 0 0 0 0 0 0 0 0 0 0 0 0 0 0 0 -0 0 0 0 0 0 0 0 0 0 0 0 0 0 0 0 0 0 1 1 1 1 2 1 0
0 0 0 0 0 0 0 0 0 0 0 0 0 0 0 0 0 -0 0 0 0 0 0 0 0 0 0 0 0 0 0 0 0 0 0 0 1 1 1 1 1 1 0
0 0 0 0 0 0 0 0 0 0 0 0 0 0 0 0 0 0 0 0 0 -0 0 -0 -0 0 0 0 0 0 0 0 0 0 0 0 0 1 1 1 1 1 1
0 0 0 0 0 0 0 0 0 0 0 0 0 0 0 0 0 0 0 0 0 0 0 0 0 0 0 0 0 -0 -0 -0 0 0 0 0 0 0 1 1 1 1 1
0 0 0 0 0 0 0 0 0 0 0 0 0 0 0 0 0 0 0 0 0 0 0 0 0 0 0 0 0 0 0 -0 -0 0 0 0 0 0 0 0 1 1 1
0 0 0 0 0 0 0 0 0 0 0 0 0 0 0 0 0 0 0 0 0 0 0 0 0 0 0 0 0 0 0 0 -0 -0 0 0 0 0 0 0 0 0 0
0 0 0 0 0 0 0 0 0 0 0 0 0 0 0 0 0 0 0 0 0 0 0 0 0 0 0 0 0 0 0 0 0 0 0 0 0 0 0 0 0 0 0
0 0 0 0 0 0 0 0 0 0 0 0 0 0 0 0 0 0 0 0 0 0 0 0 0 0 0 0 0 0 0 0 0 0 -0 0 0 -0 0 0 0 0 0
0 0 0 0 0 0 0 0 0 0 0 0 0 0 0 0 0 0 0 0 0 0 0 0 0 0 0 0 0 0 0 0 0 0 0 0 0 0 -0 0 0 0 0
0 0 0 0 0 0 0 0 0 0 0 0 0 0 0 0 0 0 0 0 0 0 0 0 0 0 0 0 0 0 0 0 -0 0 0 0 0 0 0 0 0 0 0
0 0 0 0 0 0 0 0 0 0 0 0 0 0 0 0 0 0 0 0 0 0 1 0 0 0 0 0 0 0 0 0 0 0 0 0 0 0 0 0 0 0 0
0 0 0 0 0 0 0 0 0 0 0 0 0 0 0 0 0 0 0 0 0 0 0 0 0 0 0 0 0 0 0 -0 0 0 0 0 0 0 0 0 0 0 0
0 0 0 0 0 0 0 0 0 0 0 0 0 0 0 0 0 0 0 0 0 0 0 0 0 0 0 0 0 0 -0 0 0 0 -0 -0 0 0 0 -0 0 0 0
0 0 0 0 0 0 0 0 0 0 0 0 0 0 0 0 0 0 0 0 0 0 0 0 0 0 0 0 0 0 0 0 0 -0 -0 -0 0 0 -0 -0 0 0 0
0 0 0 0 0 0 0 0 0 0 0 0 0 0 0 0 0 0 0 0 0 0 0 0 0 0 0 0 0 0 0 0 -0 -0 -0 -0 -0 0 -0 -0 0 0 0
0 0 0 0 0 0 0 0 0 0 0 0 0 0 0 0 0 0 0 0 0 0 -0 0 0 0 0 0 0 -0 0 0 0 -0 -0 -0 -0 -0 -0 -0 0 0 0
0 0 0 0 0 0 0 0 0 0 0 0 0 0 0 0 0 0 0 0 0 0 0 0 0 0 0 0 0 0 -0 0 0 -0 -0 -0 -0 -0 -0 -0 0 0 0
0 0 0 0 0 0 0 0 0 0 0 0 0 0 0 0 0 0 0 0 0 0 0 0 0 0 0 -0 0 0 0 0 -0 -0 -0 -0 -0 -0 -0 -0 0 0 0
0 0 0 0 0 0 0 0 0 0 0 0 0 0 0 0 0 0 0 0 0 0 0 0 0 0 -0 0 0 0 0 -0 0 -0 -0 -0 -0 -0 -0 -0 0 0 0
Wind_Speed_500mb
19 21 25 30 34 37 39 40 41 40 41 41 42 46 48 50 50 53 57 56 55 57 61 63 69 72 72 73 75 78 73 75 75 74 77 75 75 79 86 87 83 75 65
20 23 26 31 38 42 45 45 46 49 50 51 50 49 51 52 54 57 60 61 60 61 58 60 62 67 73 72 74 78 80 78 79 80 79 82 83 81 91 100 96 82 72
21 23 28 34 40 46 50 51 52 54 56 57 59 60 60 60 60 60 61 63 63 61 61 60 59 60 62 72 76 74 81 81 85 84 85 83 88 89 87 94 91 86 78
22 24 28 34 41 45 48 49 51 57 59 62 68 69 69 70 69 66 66 64 63 65 64 63 64 65 61 64 72 82 74 82 86 89 88 86 89 95 95 92 97 83 80
24 27 32 38 43 47 50 52 53 57 63 67 70 74 78 79 75 72 64 55 53 55 57 56 57 60 67 65 67 75 86 82 90 91 92 93 90 94 103 105 109 100 82
27 30 35 40 44 48 50 52 55 55 60 66 73 76 77 84 75 53 59 54 43 47 68 69 63 61 63 67 71 68 79 89 87 93 98 96 97 97 100 112 114 108 101
33 33 37 43 47 50 50 50 53 55 56 60 71 77 85 52 59 54 43 36 44 73 59 59 74 73 68 66 63 75 73 80 90 97 93 99 102 102 101 114 106 110 101
35 36 38 43 47 50 47 47 49 55 55 52 51 64 39 66 6 16 41 65 49 61 68 53 53 68 79 85 91 80 76 81 80 90 101 99 105 106 105 106 125 122 125
38 40 42 44 47 47 46 47 49 52 55 53 45 32 24 23 78 48 40 63 40 45 77 96 84 86 93 86 86 89 83 81 87 88 89 101 106 108 108 109 132 143 131
41 43 43 44 46 45 46 49 52 57 59 59 51 48 45 56 29 69 66 93 106 84 90 110 108 84 90 85 94 107 111 94 88 89 95 97 106 109 111 111 112 133 150
46 45 43 44 46 48 47 53 58 59 62 60 57 56 59 62 60 57 99 88 96 89 88 106 126 122 115 106 104 103 104 105 101 92 99 97 97 109 111 112 120 135 146
47 45 44 45 47 50 54 60 64 66 65 66 66 66 69 66 58 53 69 117 95 111 112 122 118 125 106 109 121 121 117 113 113 103 103 111 110 103 112 113 118 123 147
46 44 45 47 50 56 61 65 69 70 71 72 71 73 72 78 80 74 67 105 118 136 108 113 125 119 125 119 123 119 122 112 98 94 101 116 117 122 115 119 116 125 127
43 45 47 47 53 60 66 69 73 73 70 71 69 68 74 80 82 84 78 74 100 119 137 122 106 101 104 112 107 111 112 105 99 111 113 115 133 123 125 109 120 114 121
45 47 47 49 55 62 66 67 69 68 67 67 70 72 75 80 81 81 82 79 81 96 118 149 115 89 82 105 111 94 87 92 97 103 100 102 120 134 130 106 109 114 111
47 46 48 53 56 59 61 61 63 63 66 69 72 76 80 84 85 84 87 87 86 93 99 127 148 106 96 90 92 93 106 106 101 100 95 97 92 127 142 119 102 103 101
46 48 51 53 54 55 57 59 60 64 66 69 70 75 83 83 86 87 85 87 90 91 98 111 129 116 107 108 105 101 99 106 110 115 103 104 100 101 135 123 110 111 115
47 50 50 51 52 54 56 58 62 64 68 71 72 77 85 84 86 89 88 90 93 94 92 102 122 102 111 109 104 119 107 101 103 98 95 103 102 102 111 124 108 111 117
47 50 49 49 51 53 57 59 64 68 69 71 74 79 86 85 88 85 86 90 89 90 88 94 111 97 108 118 112 104 97 107 96 83 92 84 90 95 104 112 117 118 119
49 47 45 45 51 56 59 61 64 67 71 75 78 82 84 81 86 87 89 91 91 90 85 88 95 99 97 100 94 96 96 88 94 73 69 75 89 89 99 118 112 116 129
47 43 41 45 52 56 57 60 65 69 75 81 84 83 81 80 79 80 89 97 92 91 87 85 88 89 89 88 78 82 84 93 70 61 67 78 82 79 99 132 93 112 137
41 37 41 46 53 55 55 58 64 71 78 80 85 81 81 82 82 79 82 88 90 95 95 92 94 96 98 96 97 94 83 85 48 49 51 63 65 59 88 120 96 104 133
38 37 40 46 51 52 53 57 66 73 76 78 78 82 84 81 84 90 90 85 87 87 92 93 99 98 95 92 90 94 92 91 73 69 60 75 66 78 81 96 111 101 143
36 35 38 44 48 48 52 58 68 68 74 79 84 84 88 97 92 87 94 93 92 93 87 86 95 101 103 101 101 102 102 94 96 79 78 68 63 71 79 79 89 122 137
33 31 37 41 46 46 49 57 56 64 75 86 87 86 89 92 87 87 92 99 102 100 87 86 91 94 98 90 88 86 94 79 90 75 61 69 66 56 85 78 46 128 153
29 30 34 38 43 46 48 52 48 61 80 89 97 87 87 86 78 82 87 95 101 96 90 80 88 88 84 89 89 95 99 99 62 54 57 52 35 26 49 81 67 125 146
Wind_Direction_500mb
299 312 322 324 325 323 323 321 320 318 316 314 313 312 311 309 306 304 302 300 297 293 288 283 275 271 266 263 260 259 259 254 252 247 244 243 243 245 242 239 237 236 233
297 313 319 323 324 324 323 323 326 326 325 323 319 314 311 310 307 304 303 301 299 295 293 289 284 277 269 265 262 256 255 258 255 250 246 243 243 242 245 237 236 234 231
299 313 322 324 321 323 324 325 327 325 324 323 320 319 317 313 310 306 302 298 296 293 292 290 287 282 276 269 265 262 256 253 255 254 249 244 242 242 241 245 240 227 230
300 308 312 313 316 319 322 323 324 326 325 324 323 321 318 315 314 312 308 302 296 291 288 286 286 284 278 270 267 263 260 259 253 254 253 247 243 242 241 237 240 232 232
285 296 307 314 319 321 319 319 321 323 323 322 320 319 317 314 313 311 304 298 296 293 292 292 288 284 282 278 267 263 260 261 256 252 253 251 247 243 241 239 238 234 229
284 296 307 310 314 316 318 320 322 321 321 321 317 315 314 317 312 308 306 295 295 303 302 299 296 290 284 281 281 269 262 259 259 257 252 252 249 246 244 241 239 240 232
275 292 302 310 309 313 316 320 320 320 321 320 318 317 318 327 318 308 305 286 293 297 291 300 299 298 296 288 282 281 274 260 261 255 255 252 251 248 247 244 236 225 227
278 290 296 298 305 308 315 316 316 317 318 322 318 322 324 323 12 259 282 291 287 299 293 289 291 290 292 290 293 286 276 275 260 262 257 254 251 249 246 244 236 236 233
273 283 290 298 302 305 311 311 313 313 311 312 312 301 316 296 309 321 281 292 294 284 292 297 293 293 293 295 291 286 282 276 270 255 258 256 252 250 246 243 236 227 228
271 279 287 296 298 301 307 309 308 308 307 305 302 299 289 291 308 308 296 290 297 300 294 298 299 290 288 288 284 288 288 284 272 264 252 254 255 250 248 244 242 239 221
271 278 288 291 296 301 306 304 302 303 301 296 295 292 288 284 276 270 293 295 292 295 294 291 295 291 291 286 284 288 289 288 282 267 254 252 253 253 248 244 241 231 234
269 279 286 291 296 300 302 301 299 299 298 294 292 288 285 278 273 268 275 287 287 291 292 292 290 295 293 289 291 289 287 284 283 273 257 248 249 248 250 245 242 240 221
266 277 285 292 298 299 299 299 299 298 296 291 287 284 280 276 277 274 270 281 289 292 288 285 290 290 289 290 290 286 286 284 275 269 262 247 246 249 246 246 242 240 240
266 275 282 290 295 297 299 300 298 297 295 290 287 285 285 285 283 277 270 270 282 286 289 286 284 281 281 286 286 287 285 279 266 263 263 258 242 245 247 247 242 242 240
266 274 284 291 294 297 298 299 298 298 295 292 290 289 288 285 279 275 272 265 263 275 281 287 283 278 279 279 282 271 272 275 267 265 267 263 252 243 244 242 245 237 231
268 278 285 291 294 296 298 298 299 299 295 293 290 290 288 286 281 276 274 269 264 260 266 275 280 281 288 270 268 275 275 266 260 259 259 264 257 242 242 246 240 239 236
269 278 285 289 294 299 299 300 302 299 296 295 294 292 290 286 280 274 272 271 269 266 265 267 271 278 275 279 282 283 276 266 265 257 262 260 257 253 241 243 239 236 229
267 276 282 289 296 300 303 304 303 301 299 297 298 294 292 291 285 282 277 273 271 269 268 271 274 275 277 281 278 277 274 279 270 254 255 256 263 254 245 241 243 232 229
265 272 281 291 299 304 303 305 304 303 301 299 298 297 297 295 289 284 279 276 274 273 271 270 274 275 277 278 282 280 275 273 266 259 248 252 258 265 246 237 239 230 227
263 272 285 297 302 304 306 309 308 305 303 301 301 299 296 290 286 286 282 277 276 273 272 270 272 275 277 282 283 280 278 269 272 251 260 268 264 264 246 229 238 228 222
263 275 291 298 302 304 308 310 308 306 306 305 302 299 296 293 287 284 281 279 275 272 269 268 269 273 274 280 279 280 273 273 256 264 264 266 277 265 244 231 238 230 224
262 279 290 299 300 303 309 311 311 309 305 304 306 302 296 296 291 288 284 276 272 271 266 265 266 266 268 272 281 282 289 285 274 275 280 275 273 249 253 238 242 231 218
263 278 290 298 301 306 310 313 311 307 306 308 305 305 303 295 293 292 291 284 274 268 264 266 267 267 270 273 276 278 279 282 290 275 277 285 289 266 241 241 243 235 221
261 277 292 298 302 310 310 312 309 310 313 315 312 304 301 299 295 294 291 286 285 279 274 270 266 268 269 272 270 268 270 274 279 277 282 281 288 274 227 239 242 224 215
264 283 295 300 304 310 312 314 321 321 319 315 311 307 304 303 300 298 291 287 284 279 279 268 267 268 266 261 266 266 263 264 267 265 267 279 286 281 233 253 261 213 212
269 287 297 303 308 313 318 326 327 323 319 315 317 312 307 305 304 301 295 291 286 281 278 275 275 275 268 265 263 254 255 257 252 275 271 261 295 320 280 252 266 205 210
Wind_Speed_850mb
19 21 25 30 34 37 39 40 41 40 41 41 42 46 48 50 50 53 57 56 55 57 61 63 69 72 72 73 75 78 73 75 75 74 77 75 75 79 86 87 83 75 65
20 23 26 31 38 42 45 45 46 49 50 51 50 49 51 52 54 57 60 61 60 61 58 60 62 67 73 72 74 78 80 78 79 80 79 82 83 81 91 100 96 82 72
21 23 28 34 40 46 50 51 52 54 56 57 59 60 60 60 60 60 61 63 63 61 61 60 59 60 62 72 76 74 81 81 85 84 85 83 88 89 87 94 91 86 78
22 24 28 34 41 45 48 49 51 57 59 62 68 69 69 70 69 66 66 64 63 65 64 63 64 65 61 64 72 82 74 82 86 89 88 86 89 95 95 92 97 83 80
24 27 32 38 43 47 50 52 53 57 63 67 70 74 78 79 75 72 64 55 53 55 57 56 57 60 67 65 67 75 86 82 90 91 92 93 90 94 103 105 109 100 82
27 30 35 40 44 48 50 52 55 55 60 66 73 76 77 84 75 53 59 54 43 47 68 69 63 61 63 67 71 68 79 89 87 93 98 96 97 97 100 112 114 108 101
33 33 37 43 47 50 50 50 53 55 56 60 71 77 85 52 59 54 43 36 44 73 59 59 74 73 68 66 63 75 73 80 90 97 93 99 102 102 101 114 106 110 101
35 36 38 43 47 50 47 47 49 55 55 52 51 64 39 66 6 16 41 65 49 61 68 53 53 68 79 85 91 80 76 81 80 90 101 99 105 106 105 106 125 122 125
38 40 42 44 47 47 46 47 49 52 55 53 45 32 24 23 78 48 40 63 40 45 77 96 84 86 93 86 86 89 83 81 87 88 89 101 106 108 108 109 132 143 131
41 43 43 44 46 45 46 49 52 57 59 59 51 48 45 56 29 69 66 93 106 84 90 110 108 84 90 85 94 107 111 94 88 89 95 97 106 109 111 111 112 133 150
46 45 43 44 46 48 47 53 58 59 62 60 57 56 59 62 60 57 99 88 96 89 88 106 126 122 115 106 104 103 104 105 101 92 99 97 97 109 111 112 120 135 146
47 45 44 45 47 50 54 60 64 66 65 66 66 66 69 66 58 53 69 117 95 111 112 122 118 125 106 109 121 121 117 113 113 103 103 111 110 103 112 113 118 123 147
46 44 45 47 50 56 61 65 69 70 71 72 71 73 72 78 80 74 67 105 118 136 108 113 125 119 125 119 123 119 122 112 98 94 101 116 117 122 115 119 116 125 127
43 45 47 47 53 60 66 69 73 73 70 71 69 68 74 80 82 84 78 74 100 119 137 122 106 101 104 112 107 111 112 105 99 111 113 115 133 123 125 109 120 114 121
45 47 47 49 55 62 66 67 69 68 67 67 70 72 75 80 81 81 82 79 81 96 118 149 115 89 82 105 111 94 87 92 97 103 100 102 120 134 130 106 109 114 111
47 46 48 53 56 59 61 61 63 63 66 69 72 76 80 84 85 84 87 87 86 93 99 127 148 106 96 90 92 93 106 106 101 100 95 97 92 127 142 119 102 103 101
46 48 51 53 54 55 57 59 60 64 66 69 70 75 83 83 86 87 85 87 90 91 98 111 129 116 107 108 105 101 99 106 110 115 103 104 100 101 135 123 110 111 115
47 50 50 51 52 54 56 58 62 64 68 71 72 77 85 84 86 89 88 90 93 94 92 102 122 102 111 109 104 119 107 101 103 98 95 103 102 102 111 124 108 111 117
47 50 49 49 51 53 57 59 64 68 69 71 74 79 86 85 88 85 86 90 89 90 88 94 111 97 108 118 112 104 97 107 96 83 92 84 90 95 104 112 117 118 119
49 47 45 45 51 56 59 61 64 67 71 75 78 82 84 81 86 87 89 91 91 90 85 88 95 99 97 100 94 96 96 88 94 73 69 75 89 89 99 118 112 116 129
47 43 41 45 52 56 57 60 65 69 75 81 84 83 81 80 79 80 89 97 92 91 87 85 88 89 89 88 78 82 84 93 70 61 67 78 82 79 99 132 93 112 137
41 37 41 46 53 55 55 58 64 71 78 80 85 81 81 82 82 79 82 88 90 95 95 92 94 96 98 96 97 94 83 85 48 49 51 63 65 59 88 120 96 104 133
38 37 40 46 51 52 53 57 66 73 76 78 78 82 84 81 84 90 90 85 87 87 92 93 99 98 95 92 90 94 92 91 73 69 60 75 66 78 81 96 111 101 143
36 35 38 44 48 48 52 58 68 68 74 79 84 84 88 97 92 87 94 93 92 93 87 86 95 101 103 101 101 102 102 94 96 79 78 68 63 71 79 79 89 122 137
33 31 37 41 46 46 49 57 56 64 75 86 87 86 89 92 87 87 92 99 102 100 87 86 91 94 98 90 88 86 94 79 90 75 61 69 66 56 85 78 46 128 153
29 30 34 38 43 46 48 52 48 61 80 89 97 87 87 86 78 82 87 95 101 96 90 80 88 88 84 89 89 95 99 99 62 54 57 52 35 26 49 81 67 125 146
Wind_Direction_850mb
299 312 322 324 325 323 323 321 320 318 316 314 313 312 311 309 306 304 302 300 297 293 288 283 275 271 266 263 260 259 259 254 252 247 244 243 243 245 242 239 237 236 233
297 313 319 323 324 324 323 323 326 326 325 323 319 314 311 310 307 304 303 301 299 295 293 289 284 277 269 265 262 256 255 258 255 250 246 243 243 242 245 237 236 234 231
299 313 322 324 321 323 324 325 327 325 324 323 320 319 317 313 310 306 302 298 296 293 292 290 287 282 276 269 265 262 256 253 255 254 249 244 242 242 241 245 240 227 230
300 308 312 313 316 319 322 323 324 326 325 324 323 321 318 315 314 312 308 302 296 291 288 286 286 284 278 270 267 263 260 259 253 254 253 247 243 242 241 237 240 232 232
285 296 307 314 319 321 319 319 321 323 323 322 320 319 317 314 313 311 304 298 296 293 292 292 288 284 282 278 267 263 260 261 256 252 253 251 247 243 241 239 238 234 229
284 296 307 310 314 316 318 320 322 321 321 321 317 315 314 317 312 308 306 295 295 303 302 299 296 290 284 281 281 269 262 259 259 257 252 252 249 246 244 241 239 240 232
275 292 302 310 309 313 316 320 320 320 321 320 318 317 318 327 318 308 305 286 293 297 291 300 299 298 296 288 282 281 274 260 261 255 255 252 251 248 247 244 236 225 227
278 290 296 298 305 308 315 316 316 317 318 322 318 322 324 323 12 259 282 291 287 299 293 289 291 290 292 290 293 286 276 275 260 262 257 254 251 249 246 244 236 236 233
273 283 290 298 302 305 311 311 313 313 311 312 312 301 316 296 309 321 281 292 294 284 292 297 293 293 293 295 291 286 282 276 270 255 258 256 252 250 246 243 236 227 228
271 279 287 296 298 301 307 309 308 308 307 305 302 299 289 291 308 308 296 290 297 300 294 298 299 290 288 288 284 288 288 284 272 264 252 254 255 250 248 244 242 239 221
271 278 288 291 296 301 306 304 302 303 301 296 295 292 288 284 276 270 293 295 292 295 294 291 295 291 291 286 284 288 289 288 282 267 254 252 253 253 248 244 241 231 234
269 279 286 291 296 300 302 301 299 299 298 294 292 288 285 278 273 268 275 287 287 291 292 292 290 295 293 289 291 289 287 284 283 273 257 248 249 248 250 245 242 240 221
266 277 285 292 298 299 299 299 299 298 296 291 287 284 280 276 277 274 270 281 289 292 288 285 290 290 289 290 290 286 286 284 275 269 262 247 246 249 246 246 242 240 240
266 275 282 290 295 297 299 300 298 297 295 290 287 285 285 285 283 277 270 270 282 286 289 286 284 281 281 286 286 287 285 279 266 263 263 258 242 245 247 247 242 242 240
266 274 284 291 294 297 298 299 298 298 295 292 290 289 288 285 279 275 272 265 263 275 281 287 283 278 279 279 282 271 272 275 267 265 267 263 252 243 244 242 245 237 231
268 278 285 291 294 296 298 298 299 299 295 293 290 290 288 286 281 276 274 269 264 260 266 275 280 281 288 270 268 275 275 266 260 259 259 264 257 242 242 246 240 239 236
269 278 285 289 294 299 299 300 302 299 296 295 294 292 290 286 280 274 272 271 269 266 265 267 271 278 275 279 282 283 276 266 265 257 262 260 257 253 241 243 239 236 229
267 276 282 289 296 300 303 304 303 301 299 297 298 294 292 291 285 282 277 273 271 269 268 271 274 275 277 281 278 277 274 279 270 254 255 256 263 254 245 241 243 232 229
265 272 281 291 299 304 303 305 304 303 301 299 298 297 297 295 289 284 279 276 274 273 271 270 274 275 277 278 282 280 275 273 266 259 248 252 258 265 246 237 239 230 227
263 272 285 297 302 304 306 309 308 305 303 301 301 299 296 290 286 286 282 277 276 273 272 270 272 275 277 282 283 280 278 269 272 251 260 268 264 264 246 229 238 228 222
263 275 291 298 302 304 308 310 308 306 306 305 302 299 296 293 287 284 281 279 275 272 269 268 269 273 274 280 279 280 273 273 256 264 264 266 277 265 244 231 238 230 224
262 279 290 299 300 303 309 311 311 309 305 304 306 302 296 296 291 288 284 276 272 271 266 265 266 266 268 272 281 282 289 285 274 275 280 275 273 249 253 238 242 231 218
263 278 290 298 301 306 310 313 311 307 306 308 305 305 303 295 293 292 291 284 274 268 264 266 267 267 270 273 276 278 279 282 290 275 277 285 289 266 241 241 243 235 221
261 277 292 298 302 310 310 312 309 310 313 315 312 304 301 299 295 294 291 286 285 279 274 270 266 268 269 272 270 268 270 274 279 277 282 281 288 274 227 239 242 224 215
264 283 295 300 304 310 312 314 321 321 319 315 311 307 304 303 300 298 291 287 284 279 279 268 267 268 266 261 266 266 263 264 267 265 267 279 286 281 233 253 261 213 212
269 287 297 303 308 313 318 326 327 323 319 315 317 312 307 305 304 301 295 291 286 281 278 275 275 275 268 265 263 254 255 257 252 275 271 261 295 320 280 252 266 205 210